ALSAT 1N

Last updated on Tue Feb 05 2019 03:03:37 GMT+0000 (Coordinated Universal Time)

1 41789U 16059G 19035.71770355 .00000061 00000-0 20592-4 0 9992 2 41789 98.0896 99.8360 0029801 75.9565 284.4941 14.64213667126048
UTC large
Height (km)
Speed (km/s)
/
Latitude / Longitude
Inclination (degrees)
Orbital Period (minutes)
Azimuth
Elevation
Range (km)
Doppler Factor

Next 0 passes for location: London (51.5072 / 0.1276)

Sorry there are no passes over London.